[Date Prev][Date Next][Thread Prev][Thread Next] - [Date Index][Thread Index][Author Index]

2 Line ISS Keps 7-21



ISS
1 25544U 98067A   05202.42210648  .00013745  00000-0  10797-3 0  9623
2 25544 051.6454 085.5683 0003269 138.8453 214.5191 15.71849242381068
----
Via the sarex mailing list at AMSAT.ORG courtesy of AMSAT-NA.
To unsubscribe, send "unsubscribe sarex" to Majordomo@amsat.org



AMSAT Top AMSAT Home